EWG6951 EDDL-EDDK

Flight info

Callsign EWG6951
Flight time 0h 11m
Altitude 13000
Route NVO3Z NVO DCT KBO
Aircraft A319/M-SDE3FGHIRWY/LB1

Departure

Time 2026-05-01 14:46
Airport Düsseldorf Airport (EDDL)

Arrival

Time 2026-05-01 14:57
Airport Cologne Bonn Airport (EDDK)
Time Latitude Longitude Altitude Speed Heading
2026-05-01 14:32 51.28900 6.77917 125 ft 0 kts 323°
2026-05-01 14:37 51.28894 6.77923 125 ft 4 kts 321°
2026-05-01 14:37 51.28874 6.77952 125 ft 4 kts 312°
2026-05-01 14:37 51.28857 6.77985 126 ft 4 kts 303°
2026-05-01 14:37 51.28844 6.78023 126 ft 4 kts 291°
2026-05-01 14:38 51.28837 6.78064 125 ft 4 kts 271°
2026-05-01 14:38 51.28841 6.78099 126 ft 2 kts 233°
2026-05-01 14:38 51.28842 6.78101 125 ft 0 kts 232°
2026-05-01 14:40 51.28839 6.78095 125 ft 0 kts 232°
2026-05-01 14:41 51.28828 6.78072 124 ft 7 kts 233°
2026-05-01 14:41 51.28799 6.78009 128 ft 7 kts 233°
2026-05-01 14:41 51.28769 6.77947 124 ft 8 kts 232°
2026-05-01 14:41 51.28754 6.77917 127 ft 0 kts 236°
2026-05-01 14:42 51.28763 6.77860 129 ft 12 kts 308°
2026-05-01 14:42 51.28833 6.77773 126 ft 13 kts 322°
2026-05-01 14:42 51.28899 6.77697 127 ft 10 kts 327°
2026-05-01 14:42 51.28959 6.77759 130 ft 16 kts 53°
2026-05-01 14:43 51.29025 6.77900 130 ft 15 kts 52°
2026-05-01 14:43 51.29087 6.78028 131 ft 13 kts 53°
2026-05-01 14:43 51.29138 6.78136 134 ft 14 kts 52°
2026-05-01 14:43 51.29215 6.78215 137 ft 6 kts
2026-05-01 14:44 51.29249 6.78201 137 ft 4 kts 329°
2026-05-01 14:44 51.29252 6.78196 137 ft 0 kts 321°
2026-05-01 14:44 51.29277 6.78164 138 ft 11 kts 317°
2026-05-01 14:45 51.29306 6.78040 139 ft 12 kts 279°
2026-05-01 14:45 51.29288 6.77982 137 ft 8 kts 231°
2026-05-01 14:45 51.29069 6.77524 130 ft 91 kts 233°
2026-05-01 14:46 51.28551 6.76447 141 ft 149 kts 222°
2026-05-01 14:46 51.27292 6.73704 1303 ft 165 kts 230°
2026-05-01 14:46 51.26602 6.72160 1816 ft 181 kts 229°
2026-05-01 14:47 51.25820 6.70408 2165 ft 207 kts 228°
2026-05-01 14:47 51.24918 6.68487 2408 ft 225 kts 228°
2026-05-01 14:47 51.23941 6.66441 2669 ft 236 kts 228°
2026-05-01 14:48 51.21314 6.63592 3197 ft 235 kts 182°
2026-05-01 14:48 51.19686 6.63725 3573 ft 234 kts 173°
2026-05-01 14:48 51.16437 6.64261 4312 ft 236 kts 172°
2026-05-01 14:49 51.13667 6.66970 4968 ft 249 kts 128°
2026-05-01 14:49 51.11886 6.71678 5000 ft 247 kts 123°
2026-05-01 14:50 51.10747 6.74819 5005 ft 248 kts 123°
2026-05-01 14:50 51.08457 6.81160 4861 ft 246 kts 123°
2026-05-01 14:51 51.07527 6.83420 4555 ft 240 kts 136°
2026-05-01 14:51 51.05280 6.87000 4299 ft 216 kts 137°
2026-05-01 14:52 51.03423 6.90394 3741 ft 196 kts 136°
2026-05-01 14:52 51.02452 6.91886 3363 ft 193 kts 138°
2026-05-01 14:52 51.00543 6.94695 3014 ft 182 kts 137°
2026-05-01 14:53 50.99641 6.96015 3005 ft 174 kts 137°
2026-05-01 14:53 50.98754 6.97312 3007 ft 171 kts 138°
2026-05-01 14:53 50.97882 6.98586 2827 ft 169 kts 137°
2026-05-01 14:53 50.97058 6.99788 2632 ft 170 kts 137°
2026-05-01 14:54 50.96344 7.00831 2447 ft 169 kts 137°
2026-05-01 14:54 50.95499 7.02062 2226 ft 160 kts 137°
2026-05-01 14:54 50.94706 7.03218 2021 ft 152 kts 137°
2026-05-01 14:54 50.93933 7.04344 1822 ft 148 kts 138°
2026-05-01 14:55 50.93193 7.05422 1645 ft 136 kts 137°
2026-05-01 14:55 50.92512 7.06413 1464 ft 130 kts 137°
2026-05-01 14:55 50.91856 7.07368 1277 ft 127 kts 137°
2026-05-01 14:55 50.91189 7.08338 1096 ft 131 kts 135°
2026-05-01 14:56 50.90534 7.09289 932 ft 127 kts 135°
2026-05-01 14:56 50.89886 7.10233 763 ft 127 kts 135°
2026-05-01 14:56 50.89232 7.11180 613 ft 126 kts 135°
2026-05-01 14:56 50.88599 7.12102 414 ft 126 kts 136°
2026-05-01 14:57 50.87955 7.13040 278 ft 125 kts 136°
2026-05-01 14:57 50.86998 7.14431 256 ft 34 kts 139°
2026-05-01 14:57 50.86883 7.14530 260 ft 12 kts 206°
2026-05-01 14:58 50.86880 7.14434 260 ft 9 kts 275°
2026-05-01 14:58 50.86886 7.14332 258 ft 10 kts 278°
2026-05-01 14:58 50.86898 7.14210 255 ft 12 kts 279°
2026-05-01 14:58 50.86912 7.14079 255 ft 12 kts 280°
2026-05-01 14:59 50.86933 7.13925 249 ft 17 kts 293°
2026-05-01 14:59 50.87023 7.13782 243 ft 19 kts 313°
2026-05-01 14:59 50.87123 7.13633 239 ft 20 kts 317°
2026-05-01 14:59 50.87231 7.13477 235 ft 21 kts 317°
2026-05-01 15:00 50.87450 7.13161 232 ft 20 kts 317°
2026-05-01 15:00 50.87551 7.13013 232 ft 19 kts 317°
2026-05-01 15:00 50.87647 7.12873 232 ft 18 kts 317°
2026-05-01 15:01 50.87738 7.12742 232 ft 17 kts 317°
2026-05-01 15:01 50.87761 7.12585 232 ft 15 kts 252°
2026-05-01 15:01 50.87684 7.12506 232 ft 14 kts 198°
2026-05-01 15:01 50.87581 7.12455 232 ft 17 kts 197°
2026-05-01 15:02 50.87554 7.12327 233 ft 13 kts 296°
2026-05-01 15:02 50.87562 7.12301 235 ft 5 kts 296°
2026-05-01 15:02 50.87532 7.12265 232 ft 4 kts 207°
2026-05-01 15:02 50.87507 7.12244 234 ft 4 kts 208°